Location: Unspecified
(52.4292°N, 19.3359°E)
Time: 01:03:32
(UTC+02:00)

A-11 Canister half - Pass Details

Date: 21 May 2024
Orbit: 1515 x 1684 km, 47.2° (Epoch: 20 May)

Event Time Altitude Azimuth Distance (km) Brightness Sun altitude
Rises 01:34:30 0° 187° (S) 4,770 - -16.3°
Reaches altitude 10° 01:38:49 10° 171° (S) 3,758 - -16.2°
Exits shadow 01:40:27 14° 162° (SSE) 3,463 10.4 -16.1°
Maximum altitude 01:44:46 19° 131° (SE) 3,086 10.3 -15.9°
Drops below altitude 10° 01:50:37 10° 91° (E) 3,701 11.2 -15.7°
Sets 01:54:47 0° 75° (ENE) 4,672 12.0 -15.5°
